Terminal Aerodrome Forecast
Issued by NWS

Home | Current Version | Previous Version | Text Only | Print | Product List | Glossary On
Versions: 1 2 3 4 5 6 7 8 9 10 11 12 13
000
FTUS41 KPBZ 211138
TAFFKL
TAF
KFKL 211138Z 2112/2212 00000KT 1/4SM FG SCT002 BKN040
     FM211400 16005KT 3SM BR OVC045
     FM211600 17007KT P6SM BKN045
     FM220600 VRB03KT 4SM BR BKN050
      AMD NOT SKED=

USA.gov is the U.S. government's official web portal to all federal, state and local government web resources and services.